M3YFM-13 Weather Reports


Display with metric or nautical units.
time (UTC)temp
F
wind
direction
speed
MPH
gust
MPH
rain 1hr
in
rain 24hr
in
rain mn
in
humidity
%
barometer
mb
20260510153123 57 82 5.0 11.0 0.00 0.00 0.00 47
20260510152623 57 177 5.0 11.0 0.00 0.00 0.00 46
20260510152123 57 94 5.0 11.0 0.00 0.00 0.00 47
20260510151622 58 93 5.0 13.0 0.00 0.00 0.00 46
20260510151122 56 93 5.0 13.0 0.00 0.00 0.00 48
20260510150622 56 82 7.0 13.0 0.00 0.00 0.00 48
20260510150122 56 132 5.0 13.0 0.00 0.00 0.00 48
20260510145621 56 134 5.0 11.0 0.00 0.00 0.00 49
20260510145121 56 146 6.0 15.0 0.00 0.00 0.00 50
20260510144621 56 103 5.0 10.0 0.00 0.00 0.00 49
20260510144120 56 96 6.0 11.0 0.00 0.00 0.00 50
20260510143620 56 91 5.0 13.0 0.00 0.00 0.00 50
20260510143120 56 62 4.0 10.0 0.00 0.00 0.00 50
20260510142619 56 156 6.0 14.0 0.00 0.00 0.00 51
20260510142119 57 72 4.0 11.0 0.00 0.00 0.00 50
20260510141619 57 110 4.0 13.0 0.00 0.00 0.00 51
20260510141119 56 84 8.0 15.0 0.00 0.00 0.00 52
20260510140618 56 87 5.0 12.0 0.00 0.00 0.00 54
20260510140117 55 118 4.0 11.0 0.00 0.00 0.00 53
20260510135617 54 159 4.0 10.0 0.00 0.00 0.00 53
20260510135116 55 77 4.0 11.0 0.00 0.00 0.00 55
20260510134616 54 79 6.0 11.0 0.00 0.00 0.00 55
20260510134116 54 82 7.0 14.0 0.00 0.00 0.00 56
20260510133615 53 79 8.0 17.0 0.00 0.00 0.00 57
20260510133115 53 113 8.0 15.0 0.00 0.00 0.00 57
20260510132615 54 114 7.0 15.0 0.00 0.00 0.00 57
20260510131614 53 135 5.0 11.0 0.00 0.00 0.00 59
20260510131114 53 90 8.0 15.0 0.00 0.00 0.00 58
20260510130614 53 82 6.0 12.0 0.00 0.00 0.00 59
20260510130113 54 84 5.0 12.0 0.00 0.00 0.00 61
20260510125613 53 94 6.0 12.0 0.00 0.00 0.00 61
20260510125113 53 66 6.0 14.0 0.00 0.00 0.00 61
20260510124612 53 91 8.0 15.0 0.00 0.00 0.00 61
20260510124112 54 80 6.0 15.0 0.00 0.00 0.00 61
20260510123612 53 87 6.0 14.0 0.00 0.00 0.00 61
20260510123111 53 105 5.0 12.0 0.00 0.00 0.00 62
20260510122611 53 90 7.0 14.0 0.00 0.00 0.00 62
20260510122110 53 141 6.0 14.0 0.00 0.00 0.00 63
20260510121610 53 114 6.0 14.0 0.00 0.00 0.00 63
20260510121110 53 117 6.0 15.0 0.00 0.00 0.00 63
20260510120610 53 70 7.0 13.0 0.00 0.00 0.00 63
20260510120109 52 97 6.0 11.0 0.00 0.00 0.00 63
20260510115609 53 100 6.0 13.0 0.00 0.00 0.00 63
20260510115109 53 79 5.0 12.0 0.00 0.00 0.00 62
20260510114609 53 84 5.0 11.0 0.00 0.00 0.00 63
20260510114108 53 91 7.0 15.0 0.00 0.00 0.00 63
20260510113608 53 79 6.0 13.0 0.00 0.00 0.00 63
20260510113108 53 114 8.0 14.0 0.00 0.00 0.00 63
20260510112607 53 115 5.0 12.0 0.00 0.00 0.00 63
20260510112107 53 100 5.0 13.0 0.00 0.00 0.00 63
20260510111607 53 79 7.0 14.0 0.00 0.00 0.00 64
20260510111107 53 117 8.0 16.0 0.00 0.00 0.00 63
20260510110106 53 97 7.0 13.0 0.00 0.00 0.00 64
20260510105606 53 101 7.0 15.0 0.00 0.00 0.00 65
20260510105105 52 69 8.0 12.0 0.00 0.00 0.00 65
20260510104604 52 101 7.0 14.0 0.00 0.00 0.00 67
20260510104104 51 129 6.0 15.0 0.00 0.00 0.00 68
20260510103604 52 83 7.0 14.0 0.00 0.00 0.00 68
20260510103104 51 101 6.0 12.0 0.00 0.00 0.00 68
20260510102603 52 77 7.0 12.0 0.00 0.00 0.00 69
20260510102103 52 118 6.0 15.0 0.00 0.00 0.00 69
20260510101603 51 124 7.0 13.0 0.00 0.00 0.00 69
20260510101102 52 65 7.0 14.0 0.00 0.00 0.00 69
20260510100602 52 94 7.0 13.0 0.00 0.00 0.00 69
20260510095601 53 101 6.0 16.0 0.00 0.00 0.00 68
20260510095101 52 76 6.0 14.0 0.00 0.00 0.00 67
20260510094600 53 96 6.0 15.0 0.00 0.00 0.00 68
20260510094100 53 104 6.0 14.0 0.00 0.00 0.00 68
20260510093600 53 98 6.0 13.0 0.00 0.00 0.00 67
20260510093100 52 135 5.0 15.0 0.00 0.00 0.00 67
20260510092559 52 117 6.0 14.0 0.00 0.00 0.00 67
20260510092059 52 121 5.0 12.0 0.00 0.00 0.00 68
20260510091559 53 145 5.0 13.0 0.00 0.00 0.00 68
20260510091059 52 141 6.0 13.0 0.00 0.00 0.00 68
20260510090558 52 114 5.0 12.0 0.00 0.00 0.00 68
20260510090058 52 79 6.0 14.0 0.00 0.00 0.00 68
20260510085558 52 87 7.0 15.0 0.00 0.00 0.00 67
20260510085057 52 100 7.0 14.0 0.00 0.00 0.00 68
20260510084557 52 87 5.0 12.0 0.00 0.00 0.00 68
20260510084057 52 113 5.0 11.0 0.00 0.00 0.00 68
20260510083557 53 100 5.0 11.0 0.00 0.00 0.00 67
20260510083056 51 98 4.0 10.0 0.00 0.00 0.00 67
20260510082556 51 82 5.0 12.0 0.00 0.00 0.00 68
20260510082056 52 86 7.0 14.0 0.00 0.00 0.00 69
20260510081556 52 114 9.0 18.0 0.00 0.00 0.00 69
20260510081055 51 118 5.0 12.0 0.00 0.00 0.00 69
20260510080555 52 132 5.0 13.0 0.00 0.00 0.00 68
20260510080055 52 143 4.0 10.0 0.00 0.00 0.00 68
20260510075554 52 111 7.0 14.0 0.00 0.00 0.00 67
20260510075054 51 83 4.0 13.0 0.00 0.00 0.00 69
20260510074554 52 83 7.0 14.0 0.00 0.00 0.00 69
20260510074053 52 56 7.0 14.0 0.00 0.00 0.00 70
20260510073553 51 110 5.0 11.0 0.00 0.00 0.00 70
20260510073053 52 108 6.0 15.0 0.00 0.00 0.00 70
20260510072553 51 80 6.0 13.0 0.00 0.00 0.00 71
20260510072052 51 104 5.0 12.0 0.00 0.00 0.00 71
20260510071552 51 96 5.0 10.0 0.00 0.00 0.00 72
20260510071052 51 91 5.0 11.0 0.00 0.00 0.00 71
20260510070552 51 62 6.0 13.0 0.00 0.00 0.00 72
20260510070051 51 89 6.0 14.0 0.00 0.00 0.00 72
20260510065551 50 80 7.0 12.0 0.00 0.00 0.00 73
20260510065051 50 66 8.0 13.0 0.00 0.00 0.00 73
20260510064550 50 77 6.0 13.0 0.00 0.00 0.00 73
20260510064050 50 100 5.0 12.0 0.00 0.00 0.00 74
20260510063550 50 156 5.0 9.0 0.00 0.00 0.00 75
20260510063050 50 86 5.0 13.0 0.00 0.00 0.00 76
20260510062549 49 104 5.0 11.0 0.00 0.00 0.00 76
20260510062049 49 97 5.0 10.0 0.00 0.00 0.00 76
20260510061549 50 139 5.0 11.0 0.00 0.00 0.00 77
20260510060548 49 90 6.0 11.0 0.00 0.00 0.00 77
20260510060048 49 69 6.0 12.0 0.00 0.00 0.00 77
20260510055548 49 111 7.0 12.0 0.00 0.00 0.00 77
20260510055047 50 101 7.0 14.0 0.00 0.00 0.00 77
20260510054547 50 87 6.0 13.0 0.00 0.00 0.00 77
20260510054047 49 111 7.0 11.0 0.00 0.00 0.00 77
20260510053546 49 72 6.0 10.0 0.00 0.00 0.00 78
20260510053046 49 77 5.0 12.0 0.00 0.00 0.00 78
20260510052546 49 72 5.0 11.0 0.00 0.00 0.00 78
20260510052046 49 107 6.0 12.0 0.00 0.00 0.00 78
20260510051545 49 83 7.0 13.0 0.00 0.00 0.00 78
20260510051045 49 97 6.0 14.0 0.00 0.00 0.00 78
20260510050545 49 90 5.0 10.0 0.00 0.00 0.00 78
20260510050044 49 100 5.0 11.0 0.00 0.00 0.00 78
20260510045544 49 94 5.0 12.0 0.00 0.00 0.00 78
20260510045044 50 82 4.0 11.0 0.00 0.00 0.00 78
20260510044544 49 87 5.0 11.0 0.00 0.00 0.00 78
20260510044043 50 91 5.0 10.0 0.00 0.00 0.00 78
20260510043543 49 108 4.0 9.0 0.00 0.00 0.00 77
20260510043043 50 108 4.0 11.0 0.00 0.00 0.00 77
20260510042042 49 75 5.0 10.0 0.00 0.00 0.00 78
20260510041542 49 52 4.0 9.0 0.00 0.00 0.00 78
20260510041042 49 114 3.0 10.0 0.00 0.00 0.00 78
20260510040541 49 76 4.0 10.0 0.00 0.00 0.00 78
20260510040041 49 73 6.0 10.0 0.00 0.00 0.00 78
20260510035541 50 101 6.0 12.0 0.00 0.00 0.00 79
20260510035041 49 153 3.0 7.0 0.00 0.00 0.00 79
20260510034540 49 104 5.0 9.0 0.00 0.00 0.00 79
20260510034040 49 80 5.0 11.0 0.00 0.00 0.00 79
20260510033540 49 107 5.0 12.0 0.00 0.00 0.00 79
20260510033039 49 115 4.0 10.0 0.00 0.00 0.00 79
20260510032539 49 138 4.0 8.0 0.00 0.00 0.00 79
20260510032039 49 77 5.0 10.0 0.00 0.00 0.00 79
20260510031539 49 104 3.0 8.0 0.00 0.00 0.00 79
20260510031038 49 77 4.0 11.0 0.00 0.00 0.00 79
20260510030538 49 139 5.0 12.0 0.00 0.00 0.00 79
20260510030038 49 108 5.0 11.0 0.00 0.00 0.00 79
20260510025537 49 100 4.0 11.0 0.00 0.00 0.00 79
20260510025037 48 89 4.0 10.0 0.00 0.00 0.00 79
20260510024537 50 87 5.0 11.0 0.00 0.00 0.00 80
20260510024036 49 96 5.0 11.0 0.00 0.00 0.00 80
20260510023536 49 86 4.0 9.0 0.00 0.00 0.00 80
20260510023036 49 91 4.0 10.0 0.00 0.00 0.00 80
20260510022536 49 96 7.0 13.0 0.00 0.00 0.00 80
20260510022035 49 87 6.0 13.0 0.00 0.00 0.00 80
20260510021535 49 75 7.0 12.0 0.00 0.00 0.00 79
20260510021035 49 100 5.0 12.0 0.00 0.00 0.00 78
20260510020535 48 69 5.0 9.0 0.00 0.00 0.00 78
20260510020034 48 86 6.0 12.0 0.00 0.00 0.00 78
20260510015534 49 98 4.0 10.0 0.00 0.00 0.00 75
20260510015034 49 118 4.0 9.0 0.00 0.00 0.00 74
20260510014534 50 86 4.0 8.0 0.00 0.00 0.00 71
20260510014033 49 105 6.0 10.0 0.00 0.00 0.00 71
20260510013533 49 100 5.0 10.0 0.00 0.00 0.00 69
20260510013033 50 104 4.0 11.0 0.00 0.00 0.00 67
20260510012532 50 83 3.0 6.0 0.00 0.00 0.00 66
20260510012032 50 101 5.0 9.0 0.00 0.00 0.00 65
20260510011532 50 101 4.0 9.0 0.00 0.00 0.00 65
20260510011032 50 82 5.0 11.0 0.00 0.00 0.00 65
20260510010531 51 65 5.0 11.0 0.00 0.00 0.00 64
20260510010031 51 125 5.0 11.0 0.00 0.00 0.00 63
20260510005531 51 97 5.0 10.0 0.00 0.00 0.00 62
20260510005030 51 70 4.0 11.0 0.00 0.00 0.00 61
20260510004530 51 94 4.0 9.0 0.00 0.00 0.00 60
20260510004030 51 108 4.0 8.0 0.00 0.00 0.00 59
20260510003529 52 97 3.0 8.0 0.00 0.00 0.00 59
20260510003029 52 135 3.0 7.0 0.00 0.00 0.00 58
20260510002529 51 91 4.0 12.0 0.00 0.00 0.00 57
20260510002031 52 89 3.0 10.0 0.00 0.00 0.00 57
20260510001528 52 93 4.0 10.0 0.00 0.00 0.00 56
20260510001028 52 97 4.0 10.0 0.00 0.00 0.00 54
20260510000528 52 150 4.0 9.0 0.00 0.00 0.00 53
20260510000027 53 75 4.0 11.0 0.00 0.00 0.00 52
20260509235527 53 96 3.0 9.0 0.00 0.00 0.00 50
20260509235027 53 86 2.0 6.0 0.00 0.00 0.00 49
20260509234527 53 91 3.0 8.0 0.00 0.00 0.00 49
20260509234026 53 110 3.0 9.0 0.00 0.00 0.00 48
20260509233526 54 110 5.0 11.0 0.00 0.00 0.00 48
20260509233026 54 111 5.0 13.0 0.00 0.00 0.00 48
20260509232525 54 105 7.0 16.0 0.00 0.00 0.00 47
20260509232025 54 80 4.0 11.0 0.00 0.00 0.00 47
20260509231525 54 113 5.0 12.0 0.00 0.00 0.00 46
20260509231025 54 96 5.0 10.0 0.00 0.00 0.00 47
20260509230524 55 97 5.0 10.0 0.00 0.00 0.00 48
20260509230024 55 94 4.0 10.0 0.00 0.00 0.00 48
20260509225524 56 113 4.0 11.0 0.00 0.00 0.00 47
20260509225024 56 118 4.0 9.0 0.00 0.00 0.00 46
20260509224023 56 120 3.0 9.0 0.00 0.00 0.00 44
20260509223523 56 72 3.0 8.0 0.00 0.00 0.00 43
20260509223022 57 121 3.0 8.0 0.00 0.00 0.00 42
20260509222522 57 115 3.0 6.0 0.00 0.00 0.00 42
20260509222022 57 105 4.0 12.0 0.00 0.00 0.00 42
20260509221521 58 89 4.0 11.0 0.00 0.00 0.00 42
20260509221021 57 96 3.0 9.0 0.00 0.00 0.00 42
20260509220521 57 149 3.0 9.0 0.00 0.00 0.00 43
20260509220021 58 100 5.0 10.0 0.00 0.00 0.00 42
20260509215520 58 93 5.0 10.0 0.00 0.00 0.00 44
20260509215020 58 44 4.0 8.0 0.00 0.00 0.00 44
20260509214520 58 91 3.0 9.0 0.00 0.00 0.00 44
20260509214019 59 73 3.0 7.0 0.00 0.00 0.00 44
20260509213519 59 96 3.0 8.0 0.00 0.00 0.00 43
20260509213019 59 83 4.0 9.0 0.00 0.00 0.00 43
20260509212519 59 113 3.0 6.0 0.00 0.00 0.00 43
20260509212018 59 90 3.0 10.0 0.00 0.00 0.00 43
20260509211518 60 82 3.0 8.0 0.00 0.00 0.00 43
20260509211018 59 146 3.0 8.0 0.00 0.00 0.00 43
20260509210517 60 124 4.0 8.0 0.00 0.00 0.00 43
20260509210017 60 90 5.0 10.0 0.00 0.00 0.00 43
20260509205517 60 117 4.0 10.0 0.00 0.00 0.00 43
20260509205016 61 115 4.0 9.0 0.00 0.00 0.00 44
20260509204516 61 117 4.0 9.0 0.00 0.00 0.00 44
20260509204016 61 108 4.0 9.0 0.00 0.00 0.00 44
20260509203516 61 108 4.0 8.0 0.00 0.00 0.00 43
20260509203015 61 90 5.0 9.0 0.00 0.00 0.00 43
20260509202515 61 94 4.0 10.0 0.00 0.00 0.00 43
20260509202015 61 101 4.0 8.0 0.00 0.00 0.00 43
20260509201515 62 110 3.0 7.0 0.00 0.00 0.00 42
20260509201014 61 100 3.0 6.0 0.00 0.00 0.00 42
20260509200514 62 90 3.0 8.0 0.00 0.00 0.00 41
20260509200014 63 108 3.0 6.0 0.00 0.00 0.00 41
20260509195513 62 87 2.0 5.0 0.00 0.00 0.00 41
20260509195013 63 91 2.0 5.0 0.00 0.00 0.00 40
20260509194013 63 90 2.0 6.0 0.00 0.00 0.00 39
20260509193512 63 111 2.0 7.0 0.00 0.00 0.00 38
20260509193012 64 91 1.0 6.0 0.00 0.00 0.00 38
20260509192512 64 114 2.0 6.0 0.00 0.00 0.00 38
20260509192011 64 90 2.0 6.0 0.00 0.00 0.00 37
20260509191511 65 68 2.0 6.0 0.00 0.00 0.00 37
20260509191011 64 107 3.0 6.0 0.00 0.00 0.00 37
20260509190511 65 98 3.0 7.0 0.00 0.00 0.00 36
20260509190010 65 101 2.0 5.0 0.00 0.00 0.00 36
20260509185510 65 105 3.0 7.0 0.00 0.00 0.00 36
20260509185010 66 98 2.0 6.0 0.00 0.00 0.00 36
20260509184510 66 117 3.0 8.0 0.00 0.00 0.00 35
20260509184009 66 94 3.0 8.0 0.00 0.00 0.00 35
20260509183509 66 91 3.0 8.0 0.00 0.00 0.00 35
20260509183009 66 93 4.0 9.0 0.00 0.00 0.00 35
20260509182508 67 97 3.0 9.0 0.00 0.00 0.00 34
20260509182008 67 97 4.0 9.0 0.00 0.00 0.00 34
20260509181508 66 105 4.0 9.0 0.00 0.00 0.00 34
20260509181007 67 72 4.0 9.0 0.00 0.00 0.00 33
20260509180507 67 53 4.0 10.0 0.00 0.00 0.00 33
20260509180007 67 96 4.0 9.0 0.00 0.00 0.00 32
20260509175507 67 84 4.0 10.0 0.00 0.00 0.00 33
20260509175006 67 120 3.0 9.0 0.00 0.00 0.00 33
20260509174506 67 114 3.0 6.0 0.00 0.00 0.00 33
20260509174006 67 72 4.0 8.0 0.00 0.00 0.00 33
20260509173505 67 93 5.0 10.0 0.00 0.00 0.00 33
20260509173005 67 46 4.0 10.0 0.00 0.00 0.00 32
20260509172505 68 101 5.0 11.0 0.00 0.00 0.00 32
20260509172005 68 76 5.0 10.0 0.00 0.00 0.00 33
20260509171504 68 90 4.0 12.0 0.00 0.00 0.00 33
20260509171004 68 90 3.0 10.0 0.00 0.00 0.00 32
20260509170004 68 90 4.0 11.0 0.00 0.00 0.00 33
20260509165503 68 87 4.0 8.0 0.00 0.00 0.00 33
20260509165003 68 134 5.0 10.0 0.00 0.00 0.00 33
20260509164503 68 97 4.0 8.0 0.00 0.00 0.00 34
20260509164002 68 87 6.0 10.0 0.00 0.00 0.00 34
20260509163502 68 82 4.0 11.0 0.00 0.00 0.00 34
20260509163001 68 96 5.0 13.0 0.00 0.00 0.00 33
20260509162500 68 79 3.0 10.0 0.00 0.00 0.00 34
20260509162000 68 174 3.0 8.0 0.00 0.00 0.00 34
20260509161500 68 94 4.0 9.0 0.00 0.00 0.00 33
20260509161000 68 76 3.0 10.0 0.00 0.00 0.00 34
20260509155959 69 89 4.0 8.0 0.00 0.00 0.00 34
20260509155459 69 82 5.0 11.0 0.00 0.00 0.00 33
20260509154959 68 90 4.0 10.0 0.00 0.00 0.00 34
20260509154458 68 120 4.0 9.0 0.00 0.00 0.00 34
20260509153958 68 134 3.0 7.0 0.00 0.00 0.00 35